Regional Weather Roundup
Issued by NWS Jackson, KY

Home | Current Version | Previous Version | Text Only | Print | Product List | Glossary Off
Versions: 1 2 3 4 5 6 7 8 9 10 11 12 13 14 15 16 17 18 19 20 21 22 23 24 25 26 27 28 29 30 31 32 33 34 35 36 37 38 39 40 41 42 43 44 45 46 47 48 49 50

356
ASUS43 KJKL 261510
RWRJKL

EAST KENTUCKY HOURLY WEATHER ROUNDUP
NATIONAL WEATHER SERVICE JACKSON KY
1000 AM EST SUN FEB 26 2017

NOTE: "FAIR" INDICATES FEW OR NO CLOUDS BELOW 12,000 FEET WITH
NO SIGNIFICANT WEATHER AND/OR OBSTRUCTIONS TO VISIBILITY.

* THESE REPORTS ARE NOT UNDER NWS QUALITY CONTROL AND MAY NOT
  REPORT WEATHER SUCH AS PRECIPITATION AND FOG.

KYZ079-080-083-085-087-088-110-112-115-119-120-261600
...EASTERN KENTUCKY...

CITY           SKY/WX    TMP DP  RH WIND       PRES   REMARKS
JACKSON        SUNNY     33  19  56 NW6       30.22F WCI  28
LONDON         SUNNY     33  17  51 S3        30.24S
SOMERSET*      SUNNY     32  21  64 CALM      30.26F
MONTICELLO*    SUNNY     34  19  54 CALM      30.27F
WILLIAMSBURG*  SUNNY     32  23  69 CALM      30.25F
MIDDLESBORO*   SUNNY     35  20  55 CALM      30.26S
HARLAN APT*    SUNNY     34  19  55 S3        30.24R
PIKE CO APT*     N/A     32  19  58 W5        30.22F WCI  28
BIG SANDY APT* SUNNY     33  19  55 W6        30.23F WCI  28
MOREHEAD APT*  SUNNY     32  16  51 VRB3      30.25F
ASHLAND*       SUNNY     34  19  55 W10       30.24S WCI  26
$$

KYZ035-036-041-042-044-050-067-078-099-261600
...CENTRAL KENTUCKY...

CITY           SKY/WX    TMP DP  RH WIND       PRES   REMARKS
FLEMING/MASON* SUNNY     29  15  55 NW5       30.24F WCI  24
DANVILLE*      SUNNY     32  19  59 SE5       30.24F WCI  27
LEXINGTON      SUNNY     32  15  49 S3        30.23F
FRANKFORT      SUNNY     33  16  49 CALM      30.23S
LOUISVILLE     SUNNY     34  15  46 S5        30.24R WCI  30
LEBANON*         N/A     32  16  51 E3        30.24R
GLASGOW*       SUNNY     36  18  47 SE6       30.25R WCI  31
BOWLING GREEN  SUNNY     37  21  52 E9        30.26R WCI  30
$$

KYZ091>093-OHZ055-061-077-WVZ005-015-034-035-042-261600
...SOUTHERN OHIO/WEST VIRGINIA...

CITY           SKY/WX    TMP DP  RH WIND       PRES   REMARKS
COVINGTON      SUNNY     30  18  60 S8        30.22R WCI  22
COLUMBUS       MOSUNNY   33  16  49 W6        30.19S WCI  28
DAYTON         SUNNY     29  16  58 S10       30.18S WCI  20
WILMINGTON     SUNNY     29  18  63 SW9       30.19S WCI  20
HUNTINGTON     SUNNY     33  16  49 W8G16     30.24R WCI  26
CHARLESTON     MOSUNNY   33  16  49 W9G23     30.22R WCI  25
PINEVILLE*       N/A     35  14  43 MISG      30.24R
BECKLEY        SUNNY     30  14  51 NW9       30.13R WCI  22
BLUEFIELD      SUNNY     26  14  60 W16G26    30.13R WCI  14
LOGAN CO APT*    N/A     32  18  55 W9        30.20R WCI  24
$$

VAZ002-007-008-TNZ017-027-036-066-071-261600
...SOUTHWEST VIRGINIA/EAST TENNESSEE...

CITY           SKY/WX    TMP DP  RH WIND       PRES   REMARKS
WISE*          SUNNY     32  14  47 CALM      30.18R
JONESVILLE*      N/A     36  18  48 SW3       30.26S
ABINGDON*      SUNNY     34  18  51 W10       30.19S WCI  26
BRISTOL        SUNNY     35  17  47 W7        30.23R WCI  29
MORRISTOWN*    SUNNY     36  16  44 CALM      30.25R
SEVIERVILLE*   SUNNY     37  19  48 SW3       30.26S
KNOXVILLE      SUNNY     38  17  42 VRB3      30.26R
LAFOLLETTE*    SUNNY     36  19  51 SE7       30.28S WCI  30
OAK RIDGE      SUNNY     38  18  44 E5        30.28R WCI  34
CROSSVILLE     SUNNY     33  17  51 E7        30.21S WCI  27
NASHVILLE      SUNNY     40  20  44 E7        30.26R
$$

...KEY TO REMARKS...
VSB - VISIBILITY IN MILES
WCI - WIND CHILL INDEX
HX  - HEAT INDEX

$$




USA.gov is the U.S. government's official web portal to all federal, state and local government web resources and services.